Weather History for KGED - October, 2012

Change the Weather History Date:

Tuesday, October 30, 2012

  Actual Average Record
Temperature  
Mean Temperature 50 °F 53 °F  
Max Temperature 56 °F 64 °F 80 °F (1984)
Min Temperature 43 °F 43 °F 21 °F (1952)
Degree Days  
Heating Degree Days 15 12  
Month to date heating degree days 173 235  
Since 1 July heating degree days 201 273  
Cooling Degree Days 0 0  
Month to date cooling degree days 60 18  
Year to date cooling degree days 1616 1189  
Moisture  
Dew Point 42 °F    
Average Humidity 88    
Maximum Humidity 100    
Minimum Humidity 76    
Precipitation  
Precipitation T in 0.12 in 0.97 in (1955)
Month to date precipitation 5.82 3.60  
Year to date precipitation 29.19 37.00  
Sea Level Pressure  
Sea Level Pressure 29.33 in    
Wind  
Wind Speed 12 mph (South)    
Max Wind Speed 29 mph    
Max Gust Speed 43 mph    
Visibility 10 miles    
Events Rain    
T = Trace of Precipitation, MM = Missing Value Source: NWS Daily Summary

Daily Weather History Graph

Daily Weather History Graph

Search for Another Location

Airport or City:

Trip Planner

Search our weather history database for the weather conditions in past years. The results will help you decide how hot, cold, wet, or windy it might be!

Date:

Astronomy

Oct. 30, 2012 Rise Set
Actual Time 7:26 AM EDT 6:02 PM EDT
Civil Twilight 6:59 AM EDT 6:30 PM EDT
Nautical Twilight 6:27 AM EDT 7:01 PM EDT
Astronomical Twilight 5:56 AM EDT 7:32 PM EDT
Moon 6:32 PM EDT (10/30) 8:10 AM EDT (10/30)
Length of Visible Light 11h 31m
Length of Day
10h 36m
Full, 99% of the Moon is Illuminated
Oct 30
Full
Nov 6
Last Quarter
Nov 13
New
Nov 20
First Quarter
Nov 28
Full

Hourly Weather History & Observations

Time (EDT) Temp. Windchill Dew Point Humidity Pressure Visibility Wind Dir Wind Speed Gust Speed Precip Events Conditions
5:17 AM 44.6 °F 38.1 °F 44.6 °F 100% 29.09 in 10.0 mi South 13.8 mph 21.9 mph 0.00 in Rain Light Rain
5:54 AM 45.0 °F 38.9 °F 44.1 °F 97% 29.12 in 10.0 mi South 12.7 mph 20.7 mph 0.00 in Rain Light Rain
6:15 AM 44.6 °F 38.1 °F 44.6 °F 100% 29.13 in 10.0 mi South 13.8 mph 23.0 mph 0.00 in   Overcast
6:41 AM 44.6 °F 38.1 °F 44.6 °F 100% 29.15 in 10.0 mi South 13.8 mph 24.2 mph 0.00 in   Overcast
6:54 AM 45.0 °F 38.5 °F 44.1 °F 97% 29.16 in 10.0 mi South 13.8 mph 24.2 mph 0.00 in Rain Light Rain
7:22 AM 44.6 °F 39.2 °F 44.6 °F 100% 29.17 in 6.0 mi South 10.4 mph - 0.00 in Rain Light Rain
7:31 AM 44.6 °F 39.2 °F 44.6 °F 100% 29.18 in 8.0 mi South 10.4 mph - 0.00 in Rain Light Rain
7:50 AM 44.6 °F 38.4 °F 42.8 °F 93% 29.20 in 10.0 mi South 12.7 mph - 0.00 in   Overcast
7:54 AM 45.0 °F 38.9 °F 43.0 °F 93% 29.20 in 10.0 mi South 12.7 mph - 0.00 in   Overcast
8:22 AM 44.6 °F 37.8 °F 42.8 °F 93% 29.22 in 10.0 mi South 15.0 mph 24.2 mph N/A   Overcast
8:52 AM 44.6 °F 38.4 °F 42.8 °F 93% 29.24 in 10.0 mi South 12.7 mph 20.7 mph 0.00 in Rain Light Rain
8:54 AM 45.0 °F 38.9 °F 43.0 °F 93% 29.24 in 10.0 mi South 12.7 mph 19.6 mph 0.00 in Rain Light Rain
9:10 AM 44.6 °F 38.1 °F 42.8 °F 93% 29.26 in 10.0 mi South 13.8 mph 21.9 mph 0.00 in Rain Light Rain
9:19 AM 44.6 °F 38.1 °F 42.8 °F 93% 29.26 in 10.0 mi South 13.8 mph - 0.00 in Rain Light Rain
9:54 AM 45.0 °F 37.9 °F 42.1 °F 90% 29.29 in 8.0 mi South 16.1 mph - 0.00 in Rain Light Rain
10:28 AM 44.6 °F 36.6 °F 41.0 °F 87% 29.30 in 10.0 mi SSW 19.6 mph 28.8 mph 0.00 in Rain Light Rain
10:54 AM 45.0 °F 37.9 °F 41.0 °F 86% 29.32 in 10.0 mi SSW 16.1 mph 27.6 mph 0.00 in Rain Light Rain
11:16 AM 44.6 °F 37.2 °F 41.0 °F 87% 29.33 in 10.0 mi SSW 17.3 mph 27.6 mph 0.00 in Rain Light Rain
11:30 AM 44.6 °F 37.4 °F 41.0 °F 87% 29.33 in 10.0 mi SSW 16.1 mph 24.2 mph 0.00 in Rain Light Rain
11:54 AM 46.0 °F 39.6 °F 41.0 °F 83% 29.34 in 10.0 mi SSW 15.0 mph 25.3 mph 0.00 in Rain Light Rain
12:54 PM 46.0 °F 38.5 °F 41.0 °F 83% 29.36 in 10.0 mi SSW 19.6 mph 26.5 mph 0.00 in   Overcast
1:07 PM 46.4 °F 39.5 °F 41.0 °F 81% 29.36 in 10.0 mi SSW 17.3 mph - N/A   Overcast
1:54 PM 46.9 °F - 39.9 °F 77% 29.37 in 10.0 mi SSW 17.3 mph - 0.00 in   Overcast
2:54 PM 46.0 °F 39.6 °F 39.9 °F 79% 29.38 in 10.0 mi South 15.0 mph - N/A   Overcast
3:26 PM 46.4 °F 40.7 °F 39.2 °F 76% 29.39 in 10.0 mi South 12.7 mph - N/A   Mostly Cloudy
3:54 PM 46.0 °F 40.2 °F 39.9 °F 79% 29.40 in 10.0 mi South 12.7 mph - 0.00 in Rain Light Rain
4:09 PM 44.6 °F 38.1 °F 39.2 °F 81% 29.41 in 10.0 mi South 13.8 mph - 0.00 in Rain Light Rain
4:54 PM 44.1 °F 38.1 °F 39.9 °F 85% 29.43 in 10.0 mi SSW 11.5 mph - 0.00 in Rain Light Rain
5:54 PM 43.0 °F 37.2 °F 39.9 °F 89% 29.45 in 10.0 mi South 10.4 mph - 0.00 in Rain Light Rain
6:54 PM 43.0 °F 38.2 °F 39.0 °F 86% 29.47 in 10.0 mi South 8.1 mph - 0.00 in   Overcast
7:25 PM 42.8 °F 38.0 °F 39.2 °F 87% 29.48 in 10.0 mi South 8.1 mph - 0.00 in Rain Light Rain
7:54 PM 43.0 °F 38.8 °F 39.9 °F 89% 29.49 in 10.0 mi South 6.9 mph - 0.00 in Rain Light Rain
8:18 PM 42.8 °F 39.3 °F 39.2 °F 87% 29.49 in 10.0 mi South 5.8 mph - 0.00 in   Overcast
8:54 PM 44.1 °F 39.0 °F 39.9 °F 85% 29.51 in 10.0 mi South 9.2 mph - 0.00 in   Overcast
9:30 PM 44.6 °F 41.4 °F 39.2 °F 81% 29.51 in 10.0 mi South 5.8 mph - N/A   Overcast
9:54 PM 44.1 °F 41.5 °F 41.0 °F 89% 29.51 in 10.0 mi South 4.6 mph - N/A   Overcast
10:23 PM 44.6 °F 43.1 °F 41.0 °F 87% 29.51 in 10.0 mi SSE 3.5 mph - N/A   Mostly Cloudy
10:54 PM 43.0 °F 41.3 °F 41.0 °F 93% 29.51 in 10.0 mi South 3.5 mph - N/A   Mostly Cloudy
11:54 PM 43.0 °F - 41.0 °F 93% 29.50 in 10.0 mi Calm Calm - N/A   Mostly Cloudy